This is the latest recevied weather packets stored in our database for station/object OK2JF-6. If no packets are shown the sender has not sent any weather packets the latest 10 day(s).
| Time | Temp. | Humidity | Pressure | Rain* | Wind** | Luminosity | Snow |
|---|---|---|---|---|---|---|---|
| 1777656257 | 16.67° C | 43% | 1096.8 hPa | 0 mm | - | 21 W/m² | - |
| 1777656138 | 16.67° C | 43% | 1097 hPa | 0 mm | - | 22 W/m² | - |
| 1777655898 | 16.67° C | 43% | 1096.8 hPa | 0 mm | - | 25 W/m² | - |
| 1777655823 | 16.67° C | 43% | 1097.1 hPa | 0 mm | - | 26 W/m² | - |
| 1777655283 | 17.22° C | 42% | 1097.2 hPa | 0 mm | - | 32 W/m² | - |
| 1777654803 | 17.22° C | 42% | 1097.1 hPa | 0 mm | - | 38 W/m² | - |
| 1777653783 | 17.22° C | 42% | 1097.2 hPa | 0 mm | - | 53 W/m² | - |
| 1777653664 | 17.22° C | 41% | 1097.3 hPa | 0 mm | - | 55 W/m² | - |
| 1777653363 | 17.78° C | 41% | 1097 hPa | 0 mm | - | 60 W/m² | - |
| 1777652898 | 17.78° C | 41% | 1097.4 hPa | 0 mm | - | 67 W/m² | - |
| 1777652883 | 17.78° C | 41% | 1097.4 hPa | 0 mm | - | 67 W/m² | - |
| 1777652403 | 17.78° C | 41% | 1097.2 hPa | 0 mm | - | 76 W/m² | - |
| 1777652164 | 17.78° C | 41% | 1097.3 hPa | 0 mm | - | 80 W/m² | - |
| 1777651923 | 17.78° C | 41% | 1097.5 hPa | 0 mm | - | 84 W/m² | - |
| 1777651503 | 17.78° C | 41% | 1097.4 hPa | 0 mm | - | 93 W/m² | - |
| 1777651443 | 17.78° C | 40% | 1097.5 hPa | 0 mm | - | 94 W/m² | - |
| 1777651263 | 17.78° C | 40% | 1097.6 hPa | 0 mm | - | 98 W/m² | - |
| 1777651203 | 17.78° C | 40% | 1097.7 hPa | 0 mm | - | 99 W/m² | - |
| 1777650903 | 17.78° C | 41% | 1097.4 hPa | 0 mm | - | 104 W/m² | - |
| 1777650783 | 17.78° C | 41% | 1097.5 hPa | 0 mm | - | 106 W/m² | - |
| 1777650196 | 17.78° C | 41% | 1097.6 hPa | 0 mm | - | 122 W/m² | - |
| 1777649583 | 17.78° C | 41% | 1097.7 hPa | 0 mm | - | 134 W/m² | - |
| 1777649223 | 17.78° C | 40% | 1097.6 hPa | 0 mm | - | 147 W/m² | - |
| 1777648983 | 17.78° C | 40% | 1097.5 hPa | 0 mm | - | 43 W/m² | - |
| 1777648877 | 17.78° C | 40% | 1097.6 hPa | 0 mm | - | 152 W/m² | - |
* Rain latest hour (hover to see other rain measurements)
** Current wind speed in m/s (hover to see current wind gust speed)